Boothville, LA

9:36 PM CDT on October 20, 2017 (GMT -0500)
Boothville

Weather History for KBVE - March, 2013

Change the Weather History Date:

Thursday, March 21, 2013

  Actual Average (KAXO) Record (KAXO)
Temperature  
Mean Temperature 58 °F -  
Max Temperature 62 °F 63 °F 78 °F (2012)
Min Temperature 54 °F 58 °F 48 °F (1998)
Degree Days  
Heating Degree Days 8    
Growing Degree Days 8 (Base 50)    
Moisture  
Dew Point 44 °F    
Average Humidity 61    
Maximum Humidity 83    
Minimum Humidity 51    
Precipitation  
Precipitation 0.00 in - - ()
Sea Level Pressure  
Sea Level Pressure 29.99 in    
Wind  
Wind Speed 8 mph (ENE)    
Max Wind Speed 10 mph    
Max Gust Speed -    
Visibility 10 miles    
Events      
Averages and records for this station are not official NWS values.
T = Trace of Precipitation, MM = Missing Value Source: NWS Daily Summary

Daily Weather History Graph

Daily Weather History Graph

Search for Another Location

Airport or City:

Trip Planner

Search our weather history database for the weather conditions in past years. The results will help you decide how hot, cold, wet, or windy it might be!

Date:

Astronomy

Mar. 21, 2013 Rise Set
Actual Time 6:59 AM CDT 7:09 PM CDT
Civil Twilight 6:36 AM CDT 7:33 PM CDT
Nautical Twilight 6:08 AM CDT 8:01 PM CDT
Astronomical Twilight 5:40 AM CDT 8:29 PM CDT
Moon 2:01 PM CDT 2:59 AM CDT
Length of Visible Light 12h 57m
Length of Day
12h 09m
Waxing Gibbous, 69% of the Moon is Illuminated
Mar 21
Waxing Gibbous
Mar 27
Full
Apr 2
Last Quarter
Apr 10
New
Apr 18
First Quarter

Hourly Weather History & Observations

Time (CDT) Temp. Dew Point Humidity Pressure Visibility Wind Dir Wind Speed Gust Speed Precip Events Conditions
12:51 AM 57.9 °F 39.9 °F 51% 30.04 in 10.0 mi NNE 5.8 mph - N/A   Clear
1:51 AM 57.0 °F 41.0 °F 55% 30.04 in 10.0 mi North 6.9 mph - N/A   Clear
2:51 AM 55.9 °F 42.1 °F 60% 30.03 in 10.0 mi NNE 9.2 mph - N/A   Clear
3:51 AM 55.9 °F 41.0 °F 57% 30.01 in 10.0 mi NE 10.4 mph - N/A   Clear
4:51 AM 55.0 °F 43.0 °F 64% 30.03 in 10.0 mi NE 5.8 mph - N/A   Clear
5:51 AM 54.0 °F 43.0 °F 66% 30.04 in 10.0 mi NE 5.8 mph - N/A   Clear
6:51 AM 55.0 °F 42.1 °F 62% 30.03 in 10.0 mi NE 8.1 mph - N/A   Clear
7:51 AM 55.0 °F 43.0 °F 64% 30.04 in 10.0 mi NE 6.9 mph - N/A   Clear
8:51 AM 55.9 °F 43.0 °F 62% 30.06 in 10.0 mi NE 5.8 mph - N/A   Clear
9:51 AM 59.0 °F 44.1 °F 58% 30.06 in 10.0 mi ENE 8.1 mph - N/A   Clear
10:51 AM 60.1 °F 43.0 °F 53% 30.06 in 10.0 mi ENE 9.2 mph - N/A   Clear
11:51 AM 61.0 °F 43.0 °F 52% 30.06 in 10.0 mi ENE 9.2 mph - N/A   Clear
12:51 PM 60.1 °F 43.0 °F 53% 30.04 in 10.0 mi ENE 10.4 mph - N/A   Clear
1:51 PM 61.0 °F 43.0 °F 52% 30.03 in 10.0 mi ENE 8.1 mph - N/A   Clear
2:51 PM 61.0 °F 43.0 °F 52% 30.00 in 10.0 mi East 10.4 mph - N/A   Clear
3:51 PM 60.1 °F 42.1 °F 51% 29.96 in 10.0 mi ESE 10.4 mph - N/A   Partly Cloudy
4:51 PM 60.1 °F 43.0 °F 53% 29.93 in 10.0 mi ESE 10.4 mph - N/A   Clear
5:51 PM 60.1 °F 44.1 °F 55% 29.92 in 10.0 mi East 10.4 mph - N/A   Clear
6:51 PM 57.9 °F 45.0 °F 62% 29.92 in 10.0 mi ESE 6.9 mph - N/A   Scattered Clouds
7:51 PM 55.9 °F 46.9 °F 72% 29.90 in 10.0 mi East 5.8 mph - N/A   Clear
8:51 PM 57.0 °F 48.9 °F 74% 29.90 in 10.0 mi East 6.9 mph - N/A   Overcast
9:51 PM 57.9 °F 50.0 °F 75% 29.91 in 10.0 mi East 4.6 mph - N/A   Mostly Cloudy
10:51 PM 57.0 °F 51.1 °F 81% 29.90 in 10.0 mi ESE 5.8 mph - N/A   Clear
11:51 PM 57.0 °F 52.0 °F 83% 29.89 in 10.0 mi ESE 5.8 mph - N/A   Mostly Cloudy